JUGNU

Last updated on Wed Oct 22 2025 00:03:09 GMT+0000 (Coordinated Universal Time)

1 37839U 11058B 25294.37029980 .00000656 00000+0 20280-3 0 9996 2 37839 19.9618 319.2173 0018458 319.6729 68.6688 14.13663423725194
UTC large
Height (km)
Speed (km/s)
/
Latitude / Longitude
Inclination (degrees)
Orbital Period (minutes)
Azimuth
Elevation
Range (km)
Doppler Factor

Next 0 passes for location: London (51.5072 / 0.1276)

Sorry there are no passes over London.